Change the Weather History Date:

Thursday, November 27, 2014

  Actual Average Record
Temperature  
Mean Temperature 15 °F 33 °F  
Max Temperature 25 °F 41 °F 64 °F (1998)
Min Temperature 5 °F 25 °F 5 °F (2014)
Degree Days  
Heating Degree Days 50 32  
Month to date heating degree days 920 687  
Since 1 July heating degree days 1509 1247  
Cooling Degree Days 0 0  
Month to date cooling degree days 0 0  
Year to date cooling degree days 728 786  
Moisture  
Dew Point 12 °F    
Average Humidity 70    
Maximum Humidity 84    
Minimum Humidity 56    
Precipitation  
Precipitation T in 0.08 in 0.62 in (2006)
Month to date precipitation 1.80 2.23  
Year to date precipitation 33.43 34.08  
Snow  
Snow T in - - ()
Month to date snowfall 4.0  
Since 1 July snowfall 4.0  
Since 1 September snowfall 4.0  
Snow Depth 1.00 in    
Sea Level Pressure  
Sea Level Pressure 30.42 in    
Wind  
Wind Speed 11 mph (WNW)    
Max Wind Speed 23 mph    
Max Gust Speed 26 mph    
Visibility 8 miles    
Events Snow    
T = Trace of Precipitation, MM = Missing Value Source: NWS Daily Summary

Daily Weather History Graph

Daily Weather History Graph

Search for Another Location

Airport or City:

Trip Planner

Search our weather history database for the weather conditions in past years. The results will help you decide how hot, cold, wet, or windy it might be!

Date:

Astronomy

Nov. 27, 2014 Rise Set
Actual Time 7:05 AM CST 4:34 PM CST
Civil Twilight 6:34 AM CST 5:05 PM CST
Nautical Twilight 6:00 AM CST 5:39 PM CST
Astronomical Twilight 5:27 AM CST 6:12 PM CST
Moon 11:18 AM CST (11/27) 10:16 PM CST (11/27)
Length of Visible Light 10h 30m
Length of Day
9h 29m
Waxing Crescent, 31% of the Moon is Illuminated
Nov 27
Waxing Crescent
Nov 29
First Quarter
Dec 6
Full
Dec 14
Last Quarter
Dec 21
New

Hourly Weather History & Observations

Time (CST) Temp. Windchill Dew Point Humidity Pressure Visibility Wind Dir Wind Speed Gust Speed Precip Events Conditions
12:39 AM 19.9 °F 12.1 °F 17.1 °F 89% 30.29 in 5.0 mi NW 5.8 mph - N/A   Overcast
12:52 AM 21.0 °F 13.4 °F 17.1 °F 85% 30.33 in 5.0 mi NW 5.8 mph - 0.00 in Snow Light Snow
1:05 AM 21.9 °F 13.4 °F 18.0 °F 85% 30.29 in 4.0 mi NW 6.9 mph - 0.00 in Snow Light Snow
1:52 AM 19.9 °F 11.1 °F 17.1 °F 89% 30.34 in 6.0 mi WNW 6.9 mph - 0.00 in   Mostly Cloudy
2:52 AM 21.9 °F 11.7 °F 18.0 °F 85% 30.36 in 8.0 mi NW 9.2 mph - N/A   Mostly Cloudy
3:01 AM 23.0 °F 11.1 °F 19.0 °F 85% 30.32 in 8.0 mi NW 12.7 mph - N/A   Mostly Cloudy
3:52 AM 24.1 °F 13.7 °F 19.0 °F 81% 30.37 in 10.0 mi NW 10.4 mph - N/A   Overcast
4:52 AM 25.0 °F 17.1 °F 19.0 °F 78% 30.38 in 10.0 mi WNW 6.9 mph - N/A   Overcast
5:44 AM 25.0 °F 13.1 °F 19.9 °F 81% 30.35 in 8.0 mi WNW 13.8 mph - 0.00 in Snow Light Snow
5:52 AM 25.0 °F 12.6 °F 19.0 °F 78% 30.39 in 5.0 mi WNW 15.0 mph - 0.00 in Snow Light Snow
6:21 AM 24.1 °F 12.0 °F 17.1 °F 75% 30.37 in 9.0 mi NW 13.8 mph - 0.00 in   Overcast
6:38 AM 24.1 °F 11.0 °F 17.1 °F 75% 30.37 in 8.0 mi NW 16.1 mph - 0.00 in   Overcast
6:52 AM 23.0 °F 9.2 °F 17.1 °F 78% 30.41 in 8.0 mi WNW 17.3 mph - 0.00 in   Overcast
7:04 AM 21.9 °F 8.2 °F 17.1 °F 82% 30.38 in 9.0 mi WNW 16.1 mph - N/A   Overcast
7:44 AM 21.0 °F 6.2 °F 16.0 °F 81% 30.39 in 5.0 mi WNW 18.4 mph - 0.00 in Snow Light Snow
7:52 AM 21.0 °F 7.1 °F 16.0 °F 81% 30.43 in 3.0 mi WNW 16.1 mph - 0.00 in Snow Light Snow
8:52 AM 19.9 °F 4.8 °F 14.0 °F 78% 30.45 in 5.0 mi WNW 18.4 mph - 0.00 in Snow Light Snow
9:52 AM 18.0 °F 1.7 °F 12.0 °F 78% 30.47 in 10.0 mi WNW 19.6 mph - 0.00 in   Partly Cloudy
10:33 AM 17.1 °F 1.0 °F 10.0 °F 74% 30.45 in 10.0 mi WNW 18.4 mph - N/A   Mostly Cloudy
10:47 AM 17.6 °F 2.2 °F 10.4 °F 73% 30.44 in 10.0 mi WNW 17.3 mph - N/A   Scattered Clouds
10:52 AM 18.0 °F 3.1 °F 10.9 °F 74% 30.48 in 10.0 mi WNW 16.1 mph - N/A   Mostly Cloudy
11:05 AM 17.1 °F 2.0 °F 10.0 °F 74% 30.44 in 10.0 mi WNW 16.1 mph - N/A   Partly Cloudy
11:52 AM 18.0 °F 3.6 °F 10.0 °F 71% 30.47 in 10.0 mi WNW 15.0 mph - N/A   Clear
12:52 PM 19.0 °F 5.0 °F 9.0 °F 65% 30.46 in 10.0 mi WNW 15.0 mph - N/A   Clear
1:52 PM 19.0 °F 4.5 °F 7.0 °F 59% 30.46 in 10.0 mi WNW 16.1 mph - N/A   Clear
2:52 PM 17.1 °F 2.0 °F 6.1 °F 62% 30.47 in 10.0 mi West 16.1 mph - N/A   Clear
3:52 PM 15.1 °F 1.1 °F 3.9 °F 61% 30.49 in 10.0 mi WNW 12.7 mph - N/A   Clear
4:52 PM 12.9 °F 0.7 °F 1.0 °F 59% 30.49 in 10.0 mi WNW 9.2 mph - N/A   Clear
5:52 PM 10.0 °F -2.9 °F -0.0 °F 64% 30.49 in 10.0 mi WNW 9.2 mph - N/A   Clear
6:52 PM 8.1 °F -3.2 °F 1.0 °F 73% 30.48 in 10.0 mi West 6.9 mph - N/A   Clear
7:52 PM 7.0 °F -1.7 °F 1.0 °F 77% 30.47 in 10.0 mi WNW 4.6 mph - N/A   Clear
8:52 PM 8.1 °F - 1.9 °F 76% 30.45 in 10.0 mi Calm Calm - N/A   Clear
9:52 PM 10.0 °F 3.6 °F 3.0 °F 73% 30.45 in 10.0 mi SW 3.5 mph - N/A   Clear
10:52 PM 10.9 °F -1.8 °F 3.9 °F 73% 30.44 in 10.0 mi SW 9.2 mph - N/A   Overcast
11:52 PM 12.9 °F 5.2 °F 3.9 °F 67% 30.43 in 10.0 mi SW 4.6 mph - N/A   Overcast